Regional Weather Roundup
Issued by NWS Albany, NY

Home | Current Version | Previous Version | Graphics & Text | Print | Product List | Glossary On
Versions: 1 2 3 4 5 6 7 8 9 10 11 12 13 14 15 16 17 18 19 20 21 22 23 24 25 26 27
000
ASUS41 KALY 220710
RWRALY

NEW YORK STATE HOURLY WEATHER ROUNDUP
NATIONAL WEATHER SERVICE ALBANY NY
300 AM EDT TUE APR 22 2014

NOTE: "FAIR" INDICATES FEW OR NO CLOUDS BELOW 12,000 FEET WITH NO
SIGNIFICANT WEATHER AND/OR NO OBSTRUCTIONS TO VISIBILITY.

NYZ032-033-038>043-046>054-057>066-NYZ062>081-220800-
EAST


CITY           SKY/WX    TMP DP  RH WIND       PRES   REMARKS
ALBANY         CLOUDY    56  30  37 S9        29.75F
GLENS FALLS    CLOUDY    59  26  28 S7        29.73F
POUGHKEEPSIE   MOCLDY    50  40  68 CALM      29.78F
NEWBURGH       CLEAR     52  41  66 CALM      29.80F
MONTGOMERY     MOCLDY    43  36  76 CALM      29.78F
WHITE PLAINS   PTCLDY    44  39  82 CALM      29.80F
ISLIP          PTCLDY    46  41  82 SW3       29.82F
NEW YORK CITY  MOCLDY    51  42  71 SW7       29.81F
CENTRAL PARK   CLEAR     53  42  66 W6        29.84F
$$

NYZ005>009-017-018-044>046-055-056-220800-
CENTRAL


CITY           SKY/WX    TMP DP  RH WIND       PRES   REMARKS
FULTON         CLOUDY    60  37  42 S7        29.65F
SYRACUSE       CLOUDY    62  35  36 S7        29.66F
ROME           CLOUDY    57  31  37 E6        29.70F
ELMIRA         CLOUDY    53  40  61 CALM      29.71F
BINGHAMTON     CLOUDY    56  25  30 S5        29.73F
MONTICELLO     PTCLDY    45  28  53 CALM      29.80F
$$

NYZ026>034-041>043-220800-
NORTH


CITY           SKY/WX    TMP DP  RH WIND       PRES   REMARKS
WATERTOWN      CLOUDY    63  32  31 S6        29.62F
FORT DRUM      NOT AVBL
MASSENA        CLOUDY    48  46  93 NE3       29.66F
SARANAC LAKE   CLOUDY    43  39  86 CALM      29.68F
PLATTSBURGH    CLOUDY    49  43  80 W3        29.69S
$$

NYZ001>004-010>016-019>021-220800-
WEST


CITY           SKY/WX    TMP DP  RH WIND       PRES   REMARKS
NIAGARA FALLS  CLOUDY    57  37  47 SW9       29.64F
BUFFALO        CLOUDY    61  38  42 SW15G23   29.66F
DUNKIRK        CLOUDY    62  44  51 SW21G33   29.69F
JAMESTOWN      CLOUDY    57  37  47 SW9       29.73S
WELLSVILLE     CLOUDY    61  32  33 SW7       29.73F
ROCHESTER      CLOUDY    60  40  47 SW12      29.65F
PENN YAN       CLOUDY    56  40  55 SW7       29.69F
$$

             KEY
       WCI = WIND CHILL INDEX
       VSB = VISIBILITY
       HX  = HEAT INDEX
$$



USA.gov is the U.S. government's official web portal to all federal, state and local government web resources and services.